Date,TemperatureHighF,TemperatureAvgF,TemperatureLowF,DewpointHighF,DewpointAvgF,DewpointLowF,HumidityHigh,HumidityAvg,HumidityLow,PressureMaxIn,PressureMinIn,WindSpeedMaxMPH,WindSpeedAvgMPH,GustSpeedMaxMPH,PrecipitationSumIn
2013-1-1,48.8,36.6,29.3,15.6,10.5,5.4,47,35,23,30.37,30.27,8,2,12,0.00
2013-1-2,56.7,41.1,30.3,13.9,9.5,5.5,38,28,18,30.34,30.18,6,2,9,0.00
2013-1-3,57.3,38.7,25.6,15.6,7.6,1.1,43,28,18,30.37,30.22,5,2,6,0.00
2013-1-4,56.9,39.9,25.9,16.8,7.4,1.5,39,27,17,30.41,30.27,5,1,9,0.00
2013-1-5,56.2,41.5,26.9,14.8,7.7,1.4,40,25,16,30.42,30.19,8,1,9,0.00
2013-1-6,54.9,45.7,36.6,31.6,23.6,5.0,68,43,23,30.19,29.97,20,9,28,0.00
2013-1-7,65.2,48.3,33.8,26.5,16.5,10.8,68,30,16,30.18,30.04,18,5,24,0.00
2013-1-8,68.3,54.0,42.8,33.2,27.8,17.4,51,37,25,30.21,30.10,8,2,9,0.00
2013-1-9,65.8,52.4,35.6,32.6,28.6,23.0,64,41,28,30.21,29.82,28,8,35,0.00
2013-1-10,54.3,44.0,34.4,36.2,20.0,8.8,61,39,26,30.01,29.75,27,16,35,0.00
2013-1-11,48.7,38.0,31.2,16.8,13.5,6.4,52,38,19,30.13,30.01,14,6,19,0.00
2013-1-12,47.4,34.4,24.4,13.1,8.4,2.3,48,35,22,30.22,30.11,5,2,7,0.00
2013-1-13,44.9,28.5,17.1,8.4,3.4,-0.9,49,35,22,30.30,30.14,12,3,18,0.00
2013-1-14,42.5,29.3,18.5,2.4,-1.4,-5.2,41,27,17,30.50,30.31,11,3,13,0.00
2013-1-15,50.4,33.9,20.4,9.6,1.3,-6.0,33,25,17,30.64,30.48,5,1,9,0.00
2013-1-16,58.4,39.7,23.4,18.1,9.4,0.5,39,29,20,30.57,30.39,5,1,6,0.00
2013-1-17,62.7,43.2,26.6,17.2,11.0,5.5,46,29,15,30.45,30.30,6,1,9,0.00
2013-1-18,62.9,45.8,33.0,14.1,8.3,4.1,30,22,14,30.37,30.23,9,3,13,0.00
2013-1-19,65.2,46.5,31.4,18.3,7.5,0.9,31,21,13,30.40,30.25,5,2,7,0.00
2013-1-20,66.1,49.3,33.8,13.4,7.5,1.3,26,19,12,30.32,30.18,12,4,16,0.00
2013-1-21,69.3,53.2,41.4,14.4,8.4,3.3,21,17,11,30.27,30.14,12,5,14,0.00
2013-1-22,68.8,51.2,38.3,18.5,9.8,2.5,27,19,13,30.25,30.13,7,2,10,0.00
2013-1-23,59.5,49.5,39.3,31.9,12.8,6.3,51,23,18,30.21,30.10,4,0,5,0.00
2013-1-24,54.6,50.7,47.4,50.7,44.3,24.9,92,80,42,30.25,30.13,4,0,5,0.13
2013-1-25,58.4,52.3,47.8,49.8,47.8,45.2,94,85,66,30.24,30.01,3,0,4,0.13
2013-1-26,64.0,54.3,47.1,52.0,46.5,36.7,96,77,53,30.01,29.79,25,5,29,0.07
2013-1-27,55.2,48.5,42.4,39.6,29.9,22.6,72,50,29,29.97,29.80,28,16,34,0.00
2013-1-28,54.6,43.8,34.8,26.2,20.4,13.4,62,40,20,30.15,29.97,13,6,17,0.00
2013-1-29,56.5,43.9,38.2,31.8,27.8,22.9,59,53,37,30.27,30.11,14,6,18,0.00
2013-1-30,66.8,52.0,35.8,32.7,29.8,26.1,71,44,27,30.37,30.23,13,2,14,0.00
2013-1-31,69.7,53.1,38.8,33.8,30.5,28.0,69,44,26,30.31,30.16,10,3,12,0.00
2013-2-1,68.7,53.6,38.6,33.3,30.5,27.6,67,43,26,30.26,30.16,5,1,6,0.00
2013-2-2,67.7,55.9,44.0,33.4,30.4,28.6,58,39,25,30.31,30.18,8,2,14,0.00
2013-2-3,71.3,59.4,47.3,39.4,35.3,31.9,64,42,25,30.20,29.98,8,3,10,0.00
2013-2-4,74.8,57.9,47.1,31.8,25.8,22.3,52,31,16,30.11,29.97,8,2,10,0.00
2013-2-5,72.6,56.9,38.6,30.8,25.9,22.8,56,32,18,30.02,29.81,18,4,24,0.00
2013-2-6,71.6,61.9,49.3,28.6,19.7,12.0,44,22,11,30.00,29.88,11,4,14,0.00
2013-2-7,44.1,43.6,43.3,24.5,24.1,23.6,47,46,45,29.79,29.79,21,19,27,0.00
2013-2-8,54.0,44.7,38.3,28.2,23.5,19.4,59,44,28,29.83,29.72,25,14,33,0.00
2013-2-9,57.6,45.4,37.7,24.9,22.3,18.6,56,41,25,30.03,29.83,17,10,21,0.00
2013-2-10,58.5,45.0,29.5,23.0,19.3,13.8,61,38,22,30.08,29.93,13,4,17,0.00
2013-2-11,56.0,45.9,33.9,16.0,9.5,3.1,39,24,15,30.27,30.06,13,6,16,0.00
2013-2-12,62.4,44.1,27.8,16.8,8.8,2.4,35,24,16,30.39,30.26,7,2,9,0.00
2013-2-13,66.8,47.0,31.8,21.9,14.4,8.5,40,28,17,30.34,30.16,6,2,9,0.00
2013-2-14,70.3,55.5,39.8,27.2,22.9,14.2,41,29,19,30.26,30.13,12,3,16,0.00
2013-2-15,72.5,56.9,43.0,26.4,21.6,15.6,43,27,15,30.33,30.23,10,4,15,0.00
2013-2-16,71.6,54.8,37.2,22.2,16.1,12.3,38,23,13,30.31,29.97,10,3,12,0.00
2013-2-17,74.8,58.2,39.0,26.8,17.0,10.5,33,21,9,29.97,29.78,13,5,20,0.00
2013-2-18,69.3,59.9,50.8,27.9,25.3,20.4,41,27,18,29.99,29.78,30,11,36,0.00
2013-2-19,57.7,50.1,43.7,33.1,27.9,14.4,64,44,26,29.80,29.60,28,18,35,0.00
2013-2-20,62.2,49.0,35.4,31.3,22.8,17.7,81,38,18,29.92,29.61,17,10,25,0.00
2013-2-21,58.2,45.4,34.8,21.9,18.1,9.0,54,35,19,30.10,29.90,15,6,20,0.00
2013-2-22,63.6,49.0,31.1,26.8,19.7,14.5,59,34,16,30.22,30.09,14,5,17,0.00
2013-2-23,68.5,52.3,40.2,28.9,22.6,11.0,49,32,19,30.12,29.79,30,12,39,0.00
2013-2-24,61.9,47.8,36.4,12.2,8.1,3.8,32,21,12,30.24,30.11,18,8,26,0.00
2013-2-25,65.3,49.1,32.5,19.3,9.7,1.0,32,21,13,30.27,29.98,14,4,19,0.00
2013-2-26,65.0,50.9,37.6,18.9,12.8,3.6,43,23,14,30.22,30.04,11,4,14,0.00
2013-2-27,64.9,48.9,32.9,14.8,9.2,3.2,34,21,13,30.37,30.21,9,2,10,0.00
2013-2-28,72.5,52.8,35.4,16.6,10.7,4.2,30,19,11,30.44,30.33,5,1,7,0.00
2013-3-1,77.3,59.7,41.7,27.1,18.8,9.3,29,21,14,30.43,30.24,9,3,12,0.00
2013-3-2,80.5,61.4,43.3,29.8,23.1,16.9,37,24,14,30.30,30.00,19,7,24,0.00
2013-3-3,72.2,62.0,54.9,35.7,31.2,26.2,42,32,24,30.00,29.77,26,15,31,0.00
2013-3-4,75.8,61.0,49.0,33.4,29.9,24.9,52,33,16,30.00,29.83,14,4,17,0.00
2013-3-5,74.1,58.9,44.0,37.1,28.9,23.7,51,33,22,30.01,29.82,34,10,36,0.00
2013-3-6,66.2,54.2,45.4,35.0,31.6,26.6,66,43,27,29.94,29.83,36,21,44,0.00
2013-3-7,60.3,49.7,42.5,35.3,31.6,25.9,66,51,27,29.89,29.78,29,19,36,0.00
2013-3-8,45.5,40.2,35.2,39.2,33.7,27.6,91,78,58,29.95,29.73,18,5,22,0.45
2013-3-9,66.6,51.7,35.3,36.0,30.5,17.6,91,49,25,30.24,29.94,14,4,19,0.00
2013-3-10,73.5,57.2,41.5,23.0,17.8,12.3,39,23,12,30.33,30.15,11,3,13,0.00
2013-3-11,77.8,59.5,40.2,25.9,22.2,15.6,55,27,11,30.22,30.02,7,2,9,0.00
2013-3-12,81.7,63.6,45.4,27.4,23.8,18.4,43,24,12,30.14,30.00,6,2,7,0.00
2013-3-13,87.1,68.3,47.6,33.4,27.6,22.0,42,23,13,30.18,30.02,9,2,11,0.00
2013-3-14,90.3,71.8,50.6,39.8,30.9,26.3,43,24,13,30.12,29.93,12,4,16,0.00
2013-3-15,91.0,76.3,65.4,41.9,36.8,24.5,42,25,10,29.95,29.70,27,13,33,0.00
2013-3-16,88.6,73.5,62.7,39.1,33.4,25.7,38,25,11,29.83,29.67,25,10,34,0.00
2013-3-17,86.5,69.6,58.7,32.7,27.2,20.5,30,21,11,29.87,29.71,24,12,32,0.00
2013-3-18,80.0,67.3,54.8,31.7,26.2,22.3,31,22,12,29.96,29.79,20,9,28,0.00
2013-3-19,83.7,69.9,59.2,34.7,29.8,24.9,31,23,15,29.96,29.82,22,10,26,0.00
2013-3-20,77.1,67.8,60.9,38.2,34.0,26.0,38,29,19,29.92,29.74,28,20,37,0.00
2013-3-21,82.3,66.3,55.3,36.4,30.9,21.9,44,28,13,29.83,29.62,23,10,28,0.00
2013-3-22,62.6,57.3,52.3,33.2,26.9,21.8,41,31,24,29.83,29.69,16,8,19,0.00
2013-3-23,74.4,60.9,47.7,25.1,17.1,9.7,31,19,10,30.02,29.82,16,8,22,0.00
2013-3-24,77.8,59.3,44.1,30.4,17.9,13.1,31,21,10,30.04,29.85,13,4,16,0.00
2013-3-25,79.8,65.6,50.5,31.2,26.0,14.6,40,24,14,29.93,29.75,19,6,24,0.00
2013-3-26,81.8,68.6,60.1,34.9,26.7,10.2,32,22,12,29.80,29.66,25,15,32,0.00
2013-3-27,81.4,66.6,57.8,35.8,32.8,29.3,41,29,16,29.83,29.71,22,11,28,0.00
2013-3-28,81.3,67.3,57.8,40.1,35.0,28.0,44,32,18,29.94,29.82,21,12,28,0.00
2013-3-29,83.8,68.8,53.7,41.0,33.5,25.1,44,29,12,30.03,29.91,19,8,23,0.00
2013-3-30,84.5,71.8,61.3,39.9,33.9,28.7,38,26,15,29.97,29.83,28,12,35,0.00
2013-3-31,77.1,63.7,56.0,45.9,39.9,32.1,64,43,23,29.92,29.82,29,18,39,0.00
2013-4-1,77.4,62.3,51.6,37.5,33.1,27.5,49,35,18,29.97,29.85,26,12,34,0.00
2013-4-2,82.0,65.7,52.9,40.6,34.6,29.5,51,34,16,30.02,29.87,14,6,18,0.00
2013-4-3,86.6,70.9,54.4,38.4,35.2,27.7,50,29,15,30.02,29.88,13,6,15,0.00
2013-4-4,82.1,71.7,63.0,44.3,37.9,33.1,40,29,22,29.91,29.80,21,15,27,0.00
2013-4-5,82.6,68.2,57.6,39.9,36.3,29.5,46,32,18,29.90,29.76,19,10,25,0.00
2013-4-6,82.5,67.4,56.4,40.9,36.2,32.0,43,33,18,29.93,29.76,21,10,29,0.00
2013-4-7,83.5,68.1,59.0,39.8,36.1,32.5,41,32,18,29.85,29.58,31,12,37,0.00
2013-4-8,69.2,57.7,46.3,37.7,27.8,14.2,68,34,19,29.79,29.43,31,18,40,0.00
2013-4-9,74.0,60.2,48.7,19.8,15.7,9.6,31,19,9,30.03,29.78,24,15,31,0.00
2013-4-10,86.7,66.8,51.7,30.3,19.9,14.5,24,17,11,30.10,29.88,18,6,24,0.00
2013-4-11,86.1,74.7,61.4,38.7,31.6,25.7,36,22,13,29.76,29.59,26,8,31,0.00
2013-4-12,78.8,65.4,59.0,38.9,33.5,30.0,38,31,19,29.77,29.65,13,5,17,0.00
2013-4-13,90.2,76.2,70.2,37.8,36.1,34.3,30,24,16,29.52,29.45,28,21,38,0.00
2013-4-14,90.6,73.8,64.7,41.2,35.5,28.8,33,25,15,29.56,29.35,38,16,44,0.00
2013-4-15,74.8,64.0,53.6,35.8,28.8,22.1,39,27,15,29.59,29.40,38,29,51,0.00
2013-4-16,70.6,54.3,42.9,28.3,21.6,14.5,41,29,15,29.97,29.59,27,13,34,0.00
2013-4-17,69.8,56.1,43.5,17.1,14.0,6.5,32,20,12,30.18,29.97,19,9,27,0.00
2013-4-18,73.7,58.1,40.9,17.0,12.2,6.9,28,17,10,30.29,30.15,12,3,18,0.00
2013-4-19,83.9,65.1,45.8,28.9,17.9,6.3,25,17,10,30.22,29.88,17,6,20,0.00
2013-4-20,88.9,72.8,56.0,37.5,30.3,23.8,31,22,11,29.98,29.81,15,6,21,0.00
2013-4-21,94.1,76.4,61.3,36.9,33.5,29.1,34,22,12,29.91,29.73,22,9,27,0.00
2013-4-22,94.3,77.8,59.4,37.4,34.3,29.9,38,22,12,29.82,29.57,21,9,27,0.00
2013-4-23,83.0,72.3,62.9,35.9,23.6,11.7,26,17,11,29.90,29.64,19,9,27,0.00
2013-4-24,85.2,72.1,55.6,28.7,19.9,12.0,31,15,9,29.84,29.70,20,7,24,0.00
2013-4-25,88.6,72.3,53.7,35.2,29.3,24.0,37,22,11,29.87,29.73,18,6,23,0.00
2013-4-26,93.1,80.8,63.6,37.8,30.6,21.1,36,18,9,30.03,29.88,15,6,19,0.00
2013-4-27,97.8,80.8,65.7,37.4,32.4,26.4,32,19,9,30.03,29.83,14,6,18,0.00
2013-4-28,100.0,87.9,72.4,41.2,35.2,27.2,28,17,9,29.84,29.65,16,9,24,0.00
2013-4-29,99.6,83.7,70.3,42.3,38.7,29.8,34,22,9,29.70,29.49,18,8,25,0.00
2013-4-30,96.4,85.3,73.6,43.6,41.2,34.8,33,22,12,29.58,29.42,25,16,32,0.00
2013-5-1,85.0,73.5,61.9,42.4,15.3,1.6,40,13,5,30.07,29.58,20,9,30,0.00
2013-5-2,85.2,71.0,57.4,13.5,7.9,0.2,12,9,6,30.24,30.06,15,6,21,0.00
2013-5-3,93.3,70.7,52.0,28.4,12.7,1.3,18,11,6,30.06,29.68,16,5,20,0.00
2013-5-4,93.6,77.5,66.7,37.6,29.7,21.4,30,19,9,29.68,29.40,33,14,40,0.00
2013-5-5,66.8,61.6,53.4,41.2,36.8,26.3,60,41,24,29.81,29.52,32,18,39,0.00
2013-5-6,69.5,59.2,49.9,49.0,41.4,36.3,77,53,31,29.89,29.78,29,18,36,0.00
2013-5-7,76.9,62.1,52.0,47.5,39.1,35.9,62,44,27,29.88,29.80,25,11,30,0.01
2013-5-8,80.3,65.7,53.0,44.4,39.2,35.5,57,39,21,29.97,29.86,20,7,27,0.00
2013-5-9,83.4,67.0,58.0,53.3,43.9,39.2,73,46,23,29.99,29.89,29,7,33,0.01
2013-5-10,93.2,77.2,60.2,46.6,42.5,35.1,55,33,15,30.03,29.88,11,5,15,0.00
2013-5-11,98.8,84.0,68.7,41.8,37.6,30.4,30,20,12,30.00,29.88,10,5,16,0.00
2013-5-12,102.3,87.6,75.1,44.5,41.2,35.7,31,21,12,29.98,29.79,11,6,14,0.00
2013-5-13,104.6,89.7,76.2,47.7,41.0,33.5,32,20,10,29.87,29.71,19,10,32,0.00
2013-5-14,95.5,83.6,74.7,42.8,33.8,19.8,31,18,7,29.75,29.63,30,16,41,0.00
2013-5-15,101.1,84.2,70.4,43.8,38.5,30.7,37,21,11,29.76,29.59,17,9,26,0.00
2013-5-16,93.3,78.1,66.1,39.6,35.5,28.5,37,22,14,29.66,29.58,28,16,32,0.00
2013-5-17,86.4,72.2,63.0,42.8,40.0,37.0,44,32,21,29.74,29.62,27,14,36,0.00
2013-5-18,91.0,75.4,61.5,38.0,35.2,31.6,36,25,14,29.87,29.73,17,9,23,0.00
2013-5-19,92.9,77.6,63.7,37.4,33.8,30.1,30,21,13,29.88,29.71,16,8,19,0.00
2013-5-20,91.8,78.4,63.2,36.9,28.9,23.8,27,17,10,29.95,29.78,13,4,17,0.00
2013-5-21,96.0,81.1,71.0,34.0,29.7,23.8,22,16,10,29.81,29.57,25,15,33,0.00
2013-5-22,86.4,73.7,61.4,36.8,29.2,20.5,28,20,11,29.60,29.44,34,23,42,0.00
2013-5-23,84.0,69.2,56.8,29.3,21.0,9.1,31,18,6,29.74,29.54,29,19,38,0.00
2013-5-24,89.0,71.3,55.3,39.3,27.8,19.0,32,22,8,29.83,29.69,25,9,29,0.00
2013-5-25,91.2,74.1,61.0,36.0,31.4,23.8,34,22,11,29.78,29.68,27,14,32,0.00
2013-5-26,92.5,75.5,63.6,39.7,34.3,26.1,34,23,14,29.77,29.67,26,14,33,0.00
2013-5-27,91.9,76.7,62.5,41.6,37.2,28.9,35,25,14,29.79,29.60,29,12,38,0.00
2013-5-28,92.9,77.0,65.6,45.7,42.2,38.6,40,30,18,29.62,29.51,24,13,29,0.00
2013-5-29,94.0,78.7,66.0,48.3,44.0,41.0,42,31,18,29.66,29.49,24,13,30,0.00
2013-5-30,99.1,81.8,67.8,47.0,42.0,31.8,43,27,11,29.70,29.54,24,11,30,0.00
2013-5-31,101.7,86.2,71.0,42.5,35.9,28.1,30,18,10,29.79,29.62,18,7,25,0.00
2013-6-1,105.9,89.6,70.5,37.9,30.9,24.9,22,13,7,29.77,29.58,11,6,15,0.00
2013-6-2,104.3,88.5,73.3,44.9,37.4,30.8,26,17,10,29.60,29.43,28,12,33,0.00
2013-6-3,102.6,86.7,73.1,45.7,41.6,34.3,31,22,12,29.61,29.48,25,11,30,0.00
2013-6-4,104.3,87.0,69.8,48.6,44.1,33.3,38,24,11,29.68,29.58,23,10,29,0.00
2013-6-5,108.3,90.3,75.0,50.7,45.2,36.6,38,24,10,29.75,29.58,19,8,21,0.00
2013-6-6,111.5,93.7,78.7,48.5,43.8,34.9,32,20,9,29.69,29.54,17,7,22,0.00
2013-6-7,112.2,95.4,79.2,49.3,42.1,31.0,32,18,8,29.64,29.50,21,7,25,0.00
2013-6-8,115.4,98.7,83.1,49.9,39.9,32.8,25,15,7,29.58,29.46,29,10,36,0.00
2013-6-9,105.8,91.7,79.1,52.2,36.4,17.7,32,17,5,29.63,29.54,33,14,39,0.00
2013-6-10,93.8,81.6,71.8,43.2,31.8,18.7,30,17,8,29.68,29.58,28,17,34,0.00
2013-6-11,105.0,88.8,74.5,44.2,39.9,31.3,29,19,9,29.78,29.64,22,10,26,0.00
2013-6-12,101.8,89.3,77.3,45.4,41.0,34.4,29,19,10,29.72,29.63,25,15,33,0.00
2013-6-13,99.5,84.9,73.0,42.7,32.3,19.3,30,17,6,29.73,29.61,27,19,42,0.00
2013-6-14,99.1,82.0,65.9,38.0,28.5,-99.9,25,16,6,29.77,29.59,23,10,29,0.00
2013-6-15,98.0,83.2,69.0,36.9,32.5,22.9,29,18,7,29.72,29.62,27,14,32,0.00
2013-6-16,99.9,83.9,66.3,37.7,33.6,29.1,27,17,10,29.80,29.68,20,10,28,0.00
2013-6-17,101.5,84.8,70.7,42.1,37.8,31.8,29,20,10,29.80,29.64,23,9,32,0.00
2013-6-18,99.0,83.3,71.5,42.6,35.6,26.4,30,19,8,29.66,29.56,28,16,33,0.00
2013-6-19,95.1,78.9,66.1,39.5,33.9,24.7,33,21,10,29.67,29.55,29,16,37,0.00
2013-6-20,94.6,79.3,64.5,37.2,31.8,27.1,31,19,10,29.73,29.58,27,13,33,0.00
2013-6-21,97.4,81.2,67.0,38.9,35.3,28.1,30,20,9,29.73,29.56,24,12,31,0.00
2013-6-22,98.9,84.5,71.4,40.3,35.6,32.3,28,19,11,29.73,29.57,18,9,26,0.00
2013-6-23,96.4,81.6,69.5,43.0,39.9,36.1,31,23,14,29.60,29.45,29,14,39,0.00
2013-6-24,86.6,77.2,68.9,50.2,44.7,36.4,42,32,26,29.67,29.50,28,20,34,0.00
2013-6-25,97.8,83.0,69.5,53.3,50.7,48.0,49,34,21,29.77,29.65,25,14,31,0.00
2013-6-26,106.6,89.4,74.1,55.2,52.2,47.8,46,30,16,29.80,29.69,21,11,26,0.00
2013-6-27,108.2,92.5,77.7,57.5,53.7,47.0,48,29,14,29.87,29.75,20,9,24,0.00
2013-6-28,111.5,96.6,81.9,57.0,52.8,43.1,39,25,11,29.82,29.63,16,9,29,0.00
2013-6-29,114.3,98.2,81.9,55.3,50.6,43.1,36,22,10,29.70,29.55,19,9,22,0.00
2013-6-30,116.3,100.6,86.2,52.4,47.4,39.5,29,18,9,29.64,29.49,18,10,23,0.00
2013-7-1,114.9,99.5,87.5,53.4,48.6,42.3,27,19,11,29.69,29.53,27,12,30,0.00
2013-7-2,111.6,96.7,81.3,55.1,50.8,46.9,33,22,14,29.77,29.58,24,9,33,0.00
2013-7-3,112.9,98.6,86.1,53.8,50.1,48.2,28,20,13,29.67,29.47,17,11,22,0.00
2013-7-4,113.8,99.7,87.4,56.4,51.4,45.8,29,21,13,29.57,29.41,20,7,27,0.00
2013-7-5,109.7,97.1,85.6,56.9,53.1,41.7,35,24,13,29.54,29.44,19,11,28,0.00
2013-7-6,108.2,94.1,83.0,47.4,42.7,37.9,25,18,10,29.56,29.46,26,15,34,0.00
2013-7-7,108.2,94.4,82.9,46.7,40.6,33.1,24,16,10,29.65,29.52,18,10,26,0.00
2013-7-8,107.7,93.7,81.5,38.8,35.1,31.3,17,13,9,29.77,29.65,16,11,24,0.00
2013-7-9,108.9,95.3,82.0,42.9,35.8,29.8,17,13,9,29.82,29.73,22,11,26,0.00
2013-7-10,108.2,94.2,87.8,53.3,43.6,36.0,28,18,13,29.77,29.64,19,11,23,0.00
2013-7-11,91.5,85.0,80.2,61.4,51.8,45.8,52,32,25,29.78,29.66,22,9,25,0.00
2013-7-12,101.4,89.3,77.0,48.7,41.8,27.3,33,20,12,29.78,29.61,22,10,28,0.00
2013-7-13,104.8,91.3,79.3,44.1,38.9,31.4,21,16,12,29.76,29.65,21,11,24,0.00
2013-7-14,106.0,93.2,80.9,50.7,42.2,37.8,22,17,13,29.75,29.60,18,9,23,0.00
2013-7-15,104.4,91.4,80.5,50.9,41.2,34.5,21,18,14,29.66,29.53,28,16,33,0.00
2013-7-16,101.2,86.8,73.9,39.9,35.1,31.0,23,17,9,29.76,29.62,21,13,29,0.00
2013-7-17,103.5,87.5,70.3,44.1,37.3,29.0,30,18,8,29.89,29.75,21,7,24,0.00
2013-7-18,108.1,91.3,73.1,46.1,39.9,26.2,29,18,7,29.84,29.65,14,7,18,0.00
2013-7-19,110.7,95.0,75.8,47.0,43.4,39.9,29,18,11,29.72,29.54,19,7,23,0.00
2013-7-20,108.9,93.4,77.6,55.6,46.9,40.7,27,21,15,29.66,29.51,25,11,30,0.00
2013-7-21,101.8,90.3,79.5,66.3,56.4,47.0,56,33,24,29.75,29.58,19,8,25,0.00
2013-7-22,99.2,81.7,71.1,69.7,61.8,50.5,84,54,29,29.82,29.71,23,6,29,0.75
2013-7-23,98.9,84.4,69.9,68.9,61.9,56.6,84,50,29,29.88,29.71,13,5,18,0.08
2013-7-24,105.4,90.8,78.8,60.9,56.1,49.5,48,33,19,29.78,29.63,16,8,23,0.00
2013-7-25,108.2,93.8,81.2,55.6,52.5,49.6,37,26,16,29.77,29.65,16,10,23,0.00
2013-7-26,101.0,90.0,84.3,59.6,55.8,50.1,43,32,24,29.85,29.76,18,10,22,0.00
2013-7-27,99.2,86.2,74.7,67.9,61.8,58.0,71,46,28,29.87,29.66,20,5,25,0.17
2013-7-28,102.1,87.0,75.1,64.0,58.3,45.7,62,40,18,29.70,29.58,18,5,22,0.00
2013-7-29,101.4,86.0,68.9,55.2,44.4,31.3,55,27,10,29.80,29.67,26,10,33,0.00
2013-7-30,102.9,89.3,74.7,50.8,48.0,45.1,38,25,16,29.89,29.76,27,10,33,0.00
2013-7-31,102.3,88.4,71.6,50.1,42.2,29.3,37,22,9,29.88,29.71,19,9,25,0.00
2013-8-1,101.5,86.2,75.0,46.3,40.6,32.4,31,21,10,29.76,29.60,27,17,32,0.00
2013-8-2,97.8,83.2,69.4,43.5,38.0,31.2,34,21,11,29.77,29.65,24,10,30,0.00
2013-8-3,100.5,84.8,69.9,39.5,33.6,26.2,26,17,8,29.81,29.69,23,10,27,0.00
2013-8-4,102.5,87.2,72.3,39.7,33.2,17.1,27,16,6,29.81,29.69,21,10,28,0.00
2013-8-5,102.6,88.0,76.6,40.5,34.8,27.3,23,16,8,29.80,29.65,21,12,28,0.00
2013-8-6,103.7,87.1,74.2,44.9,39.5,33.6,29,20,10,29.79,29.67,27,14,33,0.00
2013-8-7,97.4,84.0,73.1,47.3,36.4,25.0,34,20,8,29.78,29.70,25,19,34,0.00
2013-8-8,96.0,81.9,70.8,43.0,38.3,27.2,32,22,9,29.78,29.67,23,14,30,0.00
2013-8-9,95.2,80.9,67.2,43.5,36.9,20.3,38,23,7,29.78,29.69,20,10,27,0.00
2013-8-10,97.1,82.3,69.7,45.5,41.5,30.5,37,25,11,29.83,29.72,17,10,23,0.00
2013-8-11,97.8,83.8,69.4,47.4,41.1,30.4,37,24,11,29.83,29.68,15,8,21,0.00
2013-8-12,101.5,86.3,72.0,44.9,40.1,30.8,35,21,10,29.80,29.67,18,9,21,0.00
2013-8-13,103.0,88.5,73.8,43.7,39.1,29.4,31,19,10,29.82,29.69,17,7,19,0.00
2013-8-14,103.5,90.9,78.0,43.1,36.7,29.6,27,16,8,29.79,29.65,14,7,18,0.00
2013-8-15,105.3,90.8,73.4,49.6,41.5,34.1,25,18,12,29.78,29.67,17,9,26,0.00
2013-8-16,106.0,92.4,76.1,53.5,47.0,40.2,29,22,14,29.79,29.66,22,10,28,0.00
2013-8-17,106.6,92.2,80.2,50.0,45.5,35.3,31,22,10,29.76,29.59,20,12,25,0.00
2013-8-18,106.8,87.1,72.5,65.2,48.6,40.8,56,28,16,29.84,29.61,32,6,47,0.04
2013-8-19,98.7,81.3,67.0,68.8,60.7,50.8,88,53,29,29.87,29.71,16,4,27,0.74
2013-8-20,102.4,88.4,72.5,61.9,51.4,38.2,61,31,13,29.78,29.65,23,8,28,0.00
2013-8-21,102.7,91.2,78.0,48.9,44.4,37.5,30,20,15,29.77,29.64,21,10,29,0.00
2013-8-22,102.4,91.0,76.0,49.0,44.6,36.6,34,21,14,29.78,29.61,23,14,33,0.00
2013-8-23,100.9,87.0,73.4,46.6,40.6,29.8,36,21,9,29.72,29.56,20,12,27,0.00
2013-8-24,99.1,85.2,71.3,46.0,39.2,25.7,37,22,8,29.73,29.60,19,10,24,0.00
2013-8-25,97.5,83.2,66.8,61.2,43.2,30.9,58,28,10,29.82,29.67,24,11,29,0.00
2013-8-26,90.2,78.9,65.6,62.4,58.9,55.1,75,52,36,29.88,29.75,14,4,18,0.00
2013-8-27,96.0,82.5,70.2,62.8,59.8,57.3,71,48,31,29.81,29.65,14,4,17,0.00
2013-8-28,100.5,87.7,71.8,60.5,56.2,49.0,57,36,25,29.77,29.65,17,7,23,0.00
2013-8-29,101.0,84.4,75.6,54.9,50.7,48.8,40,32,21,29.83,29.75,12,6,18,0.00
2013-8-30,98.9,88.8,77.4,64.3,60.7,53.0,46,39,31,29.86,29.74,21,12,27,0.00
2013-8-31,100.9,88.7,78.1,60.1,56.7,51.6,47,35,24,29.82,29.65,28,10,32,0.00
2013-9-1,98.0,84.5,77.6,56.8,54.5,52.3,46,37,23,29.77,29.70,22,10,25,0.00
2013-9-2,101.7,93.8,85.6,56.9,53.5,50.3,36,26,20,29.76,29.63,20,14,25,0.00
2013-9-3,100.0,89.6,78.7,58.4,54.9,51.5,47,32,21,29.78,29.66,19,12,24,0.00
2013-9-4,103.6,89.6,72.8,57.7,52.7,47.3,48,30,16,29.83,29.68,23,9,31,0.00
2013-9-5,102.9,89.8,75.5,55.5,51.0,46.9,41,28,17,29.79,29.66,16,8,27,0.00
2013-9-6,104.1,90.7,80.5,51.1,48.3,44.6,33,24,16,29.77,29.61,21,11,24,0.00
2013-9-7,102.6,89.2,76.1,56.6,45.9,38.4,35,24,12,29.77,29.62,20,10,27,0.00
2013-9-8,99.6,83.8,69.8,58.5,52.0,37.7,54,35,20,29.77,29.59,23,6,31,0.01
2013-9-9,98.3,83.0,69.0,58.7,53.7,43.5,65,40,20,29.72,29.55,13,4,19,0.00
2013-9-10,95.1,83.3,69.8,50.4,45.9,41.1,41,28,20,29.74,29.57,19,8,25,0.00
2013-9-11,96.1,83.9,71.0,47.9,45.2,41.3,36,26,19,29.81,29.69,16,6,20,0.00
2013-9-12,96.9,83.5,70.9,49.7,45.5,42.6,39,27,17,29.81,29.65,15,8,21,0.00
2013-9-13,98.2,84.4,67.9,51.5,48.3,45.2,45,30,19,29.72,29.53,12,5,16,0.00
2013-9-14,102.0,88.4,71.5,51.9,47.8,42.9,43,26,14,29.63,29.49,13,7,18,0.00
2013-9-15,102.1,88.7,72.8,51.2,45.6,39.8,41,24,13,29.65,29.55,16,9,24,0.00
2013-9-16,99.8,86.8,71.3,47.0,42.9,38.6,37,23,14,29.71,29.56,22,9,25,0.00
2013-9-17,96.3,82.2,71.7,46.5,37.7,22.0,36,22,8,29.62,29.48,28,18,34,0.00
2013-9-18,93.4,78.3,64.6,45.9,38.3,31.4,41,25,14,29.68,29.55,23,6,28,0.00
2013-9-19,95.6,79.8,65.3,38.0,30.5,26.1,26,17,11,29.77,29.64,9,3,12,0.00
2013-9-20,96.1,79.3,61.2,41.6,33.2,24.4,30,20,10,29.72,29.58,26,9,32,0.00
2013-9-21,87.4,73.7,62.7,44.6,41.5,35.4,45,32,16,29.65,29.53,26,16,31,0.00
2013-9-22,81.6,67.8,56.8,40.8,34.6,26.9,44,31,16,29.81,29.59,20,10,25,0.00
2013-9-23,89.5,73.8,52.9,39.2,36.4,33.2,51,28,16,29.92,29.78,11,5,14,0.00
2013-9-24,94.4,78.9,58.1,40.8,32.5,20.1,40,21,7,29.83,29.61,26,14,34,0.00
2013-9-25,81.7,70.5,59.0,44.0,35.8,22.1,47,30,13,29.62,29.40,33,21,42,0.00
2013-9-26,74.5,62.8,52.9,34.6,28.9,24.6,40,29,17,29.85,29.50,23,9,30,0.00
2013-9-27,77.8,64.1,51.6,28.8,25.7,21.5,37,24,15,30.03,29.85,14,5,19,0.00
2013-9-28,85.1,67.5,48.4,29.7,24.0,19.1,33,20,13,30.08,29.94,11,4,13,0.00
2013-9-29,92.9,74.2,55.3,33.9,29.0,21.0,31,20,11,30.00,29.80,19,8,25,0.00
2013-9-30,92.3,76.9,63.1,40.5,33.7,27.9,30,22,13,29.86,29.68,16,7,21,0.00
2013-10-1,93.1,76.1,63.4,47.6,42.9,38.0,47,32,17,29.80,29.64,23,11,26,0.00
2013-10-2,89.4,74.2,64.0,46.8,42.4,34.6,52,34,16,29.76,29.60,25,15,32,0.00
2013-10-3,85.9,72.4,61.8,41.5,30.6,17.8,40,23,12,29.88,29.62,19,10,25,0.00
2013-10-4,73.8,63.3,50.4,20.4,17.6,15.1,26,17,12,30.17,29.88,17,7,23,0.00
2013-10-5,78.5,63.1,48.0,24.9,19.0,14.2,27,19,12,30.30,30.15,13,4,18,0.00
2013-10-6,85.7,65.3,45.0,23.4,17.4,12.7,28,17,9,30.20,30.00,6,2,10,0.00
2013-10-7,84.5,68.4,50.6,25.5,18.0,9.7,25,15,9,30.00,29.75,24,7,28,0.00
2013-10-8,69.8,66.2,61.9,26.2,23.9,19.9,25,20,15,29.75,29.71,21,16,28,0.00
2013-10-9,63.3,56.4,50.3,41.2,37.3,34.3,58,49,35,29.69,29.48,33,20,44,0.00
2013-10-10,74.1,59.7,46.0,37.2,35.4,32.6,64,42,24,29.91,29.69,13,8,16,0.00
2013-10-11,77.8,64.5,48.1,38.6,34.0,29.1,56,34,21,29.99,29.86,13,6,15,0.00
2013-10-12,79.2,63.5,46.7,36.3,30.4,18.9,56,32,11,29.93,29.73,23,9,30,0.00
2013-10-13,76.0,65.7,54.9,36.7,32.8,25.8,42,30,19,29.97,29.73,26,10,33,0.00
2013-10-14,74.7,61.5,49.7,33.5,29.8,23.6,45,31,21,30.11,29.97,8,2,11,0.00
2013-10-15,76.3,62.3,45.9,31.5,27.1,21.7,39,27,16,30.05,29.94,7,3,13,0.00
2013-10-16,75.5,63.0,48.0,25.6,22.1,17.6,34,22,15,30.17,30.01,5,2,9,0.00
2013-10-17,81.6,62.9,45.5,27.7,22.1,14.2,32,22,13,30.06,29.89,7,2,8,0.00
2013-10-18,81.8,66.3,54.7,26.7,22.7,16.7,30,20,13,30.05,29.94,6,2,7,0.00
2013-10-19,85.1,67.0,46.9,25.9,20.1,14.5,29,18,11,30.08,29.92,10,3,12,0.00
2013-10-20,87.5,69.8,54.7,26.1,21.3,15.3,24,16,10,29.95,29.79,9,3,12,0.00
2013-10-21,85.0,69.2,56.1,27.6,22.5,17.6,25,18,11,29.96,29.85,8,3,15,0.00
2013-10-22,84.3,67.1,51.4,29.6,23.2,16.8,27,19,13,30.02,29.87,6,2,10,0.00
2013-10-23,84.3,67.6,52.3,29.7,24.4,19.3,33,20,13,29.92,29.80,6,2,9,0.00
2013-10-24,87.5,69.7,53.5,31.6,25.4,19.2,29,20,12,29.93,29.83,11,3,12,0.00
2013-10-25,87.8,71.3,57.4,30.3,26.8,20.6,29,20,11,30.04,29.93,10,4,13,0.00
2013-10-26,86.4,68.4,51.5,28.9,24.5,19.3,30,20,12,30.11,29.95,7,2,11,0.00
2013-10-27,84.3,67.4,52.4,31.5,24.8,19.3,33,21,12,29.97,29.61,22,5,30,0.00
2013-10-28,60.7,53.8,47.8,37.0,33.3,27.2,66,47,33,29.80,29.55,27,16,38,0.00
2013-10-29,64.6,52.4,43.5,36.5,34.1,32.3,70,51,32,29.95,29.79,21,10,30,0.00
2013-10-30,67.6,53.8,44.6,32.3,28.2,22.9,56,39,22,30.09,29.95,9,3,10,0.00
2013-10-31,72.2,55.3,40.7,28.4,24.4,17.9,49,32,19,30.18,30.07,4,1,9,0.00
2013-11-1,75.7,57.4,39.3,31.5,24.2,17.6,43,29,19,30.22,30.06,6,1,11,0.00
2013-11-2,76.8,60.6,41.9,31.6,26.8,21.8,48,29,17,30.08,29.74,20,6,26,0.00
2013-11-3,75.3,60.3,42.9,32.8,27.5,21.1,43,29,18,29.81,29.70,18,4,21,0.00
2013-11-4,68.7,57.7,47.6,33.3,27.1,17.8,50,32,20,29.99,29.69,14,4,16,0.00
2013-11-5,64.5,51.5,39.2,18.8,14.6,8.5,34,24,14,30.27,29.99,11,3,13,0.00
2013-11-6,69.7,53.3,36.2,19.2,13.2,6.6,31,21,14,30.38,30.26,7,2,10,0.00
2013-11-7,74.6,57.5,39.9,25.5,17.7,9.6,31,21,15,30.27,30.05,7,1,8,0.00
2013-11-8,75.4,57.7,41.5,24.6,19.8,14.2,35,24,15,30.07,29.91,6,1,7,0.00
2013-11-9,75.2,57.2,41.4,25.2,19.1,14.4,36,23,14,30.09,29.98,5,1,9,0.00
2013-11-10,76.2,58.2,41.6,24.3,18.7,12.7,33,22,14,30.17,30.07,6,1,7,0.00
2013-11-11,78.7,60.4,43.6,23.8,18.4,12.6,29,20,12,30.19,30.08,7,2,11,0.00
2013-11-12,70.8,60.4,51.3,25.3,19.2,14.3,24,20,17,30.23,30.15,5,1,8,0.00
2013-11-13,80.2,64.0,49.1,25.9,20.9,15.4,28,20,13,30.17,29.99,8,2,10,0.00
2013-11-14,80.7,69.1,56.5,31.7,28.4,25.5,32,22,16,30.03,29.58,23,9,30,0.00
2013-11-15,72.5,63.6,51.3,36.6,30.6,23.8,56,30,19,29.60,29.51,20,10,28,0.00
2013-11-16,66.8,55.6,47.9,37.0,33.7,26.3,62,45,32,29.83,29.58,22,8,27,0.00
2013-11-17,67.1,52.1,37.6,36.6,31.4,26.6,66,46,28,30.11,29.83,11,1,11,0.00
2013-11-18,68.2,55.0,41.0,38.8,34.7,28.3,66,47,33,30.15,29.96,21,6,27,0.00
2013-11-19,65.2,55.0,45.0,38.1,35.9,34.0,67,49,36,29.96,29.85,17,3,20,0.00
2013-11-20,70.0,58.9,48.6,42.8,38.2,33.6,64,47,33,29.86,29.70,23,8,33,0.00
2013-11-21,64.1,52.5,43.6,45.0,40.4,32.4,90,64,45,29.98,29.72,20,10,26,0.49
2013-11-22,43.8,41.0,38.8,37.1,34.5,32.3,86,78,64,30.11,29.98,21,13,26,0.29
2013-11-23,50.0,45.6,41.3,39.7,37.1,33.1,88,72,59,30.16,30.07,7,2,13,0.05
2013-11-24,58.6,46.4,36.8,40.5,36.6,31.5,90,71,38,30.25,30.15,5,1,5,0.00
2013-11-25,65.3,47.9,35.0,41.0,35.9,30.9,88,66,32,30.33,30.24,4,1,6,0.00
2013-11-26,63.2,49.8,39.5,40.7,36.8,33.6,83,63,36,30.32,30.17,5,1,6,0.00
2013-11-27,64.5,50.8,42.2,39.0,36.8,34.5,80,61,36,30.17,29.96,5,1,7,0.00
2013-11-28,61.4,50.0,40.5,39.0,35.6,32.7,80,59,37,30.13,29.98,7,2,10,0.00
2013-11-29,61.6,49.8,41.2,35.4,33.7,31.6,71,55,36,30.25,30.12,7,2,8,0.00
2013-11-30,65.9,52.5,42.0,35.5,32.5,30.3,70,48,30,30.29,30.16,8,2,11,0.00
2013-12-1,68.4,51.9,39.8,34.0,29.8,27.3,68,44,24,30.34,30.21,6,2,9,0.00
2013-12-2,68.2,55.3,38.2,33.6,27.8,19.5,66,38,18,30.23,29.75,27,6,33,0.00
2013-12-3,66.5,58.8,44.8,41.9,33.2,21.2,57,40,19,29.75,29.49,32,21,40,0.00
2013-12-4,48.7,39.6,30.3,21.4,13.0,8.9,45,34,25,30.03,29.63,15,4,18,0.00
2013-12-5,45.3,33.6,23.9,13.5,10.8,8.7,58,40,24,30.16,30.01,6,2,10,0.00
2013-12-6,49.0,36.6,20.8,19.4,8.8,-4.7,68,35,13,30.23,30.03,20,6,25,0.00
2013-12-7,51.2,40.9,33.7,33.6,16.8,3.0,67,39,21,30.07,29.79,38,19,49,0.00
2013-12-8,42.1,32.3,25.6,12.8,10.4,7.9,54,40,30,30.34,30.06,8,3,11,0.00
2013-12-9,44.1,32.4,22.1,10.8,3.5,-2.9,53,31,17,30.57,30.33,10,3,12,0.00
2013-12-10,49.3,32.8,20.0,6.9,3.4,-2.1,43,29,17,30.56,30.31,4,1,6,0.00
2013-12-11,56.1,38.6,24.8,14.5,9.2,3.7,43,30,18,30.42,30.32,6,1,8,0.00
2013-12-12,58.8,42.3,26.0,20.3,14.4,9.0,52,33,21,30.36,30.19,6,2,10,0.00
2013-12-13,61.4,44.0,27.6,20.2,16.3,13.0,55,34,18,30.37,30.15,6,1,7,0.00
2013-12-14,61.6,47.7,37.4,23.7,19.7,16.9,46,34,21,30.49,30.37,8,2,11,0.00
2013-12-15,62.4,46.7,30.0,23.8,19.8,16.5,58,36,20,30.48,30.32,6,1,7,0.00
2013-12-16,67.7,49.8,37.0,26.1,21.5,18.3,47,34,20,30.38,30.25,5,0,7,0.00
2013-12-17,67.8,51.1,39.7,27.0,22.6,19.3,45,33,21,30.32,30.13,5,1,7,0.00
2013-12-18,63.6,52.8,42.5,30.2,24.5,20.9,46,34,23,30.13,29.64,24,4,28,0.00
2013-12-19,57.7,49.1,43.8,34.8,30.5,20.4,63,49,32,29.83,29.55,28,17,33,0.00
2013-12-20,57.7,45.1,37.1,21.0,17.1,12.6,43,33,22,29.96,29.81,18,4,23,0.00
2013-12-21,63.4,45.2,31.7,26.9,22.2,14.9,59,42,25,30.11,29.89,9,1,10,0.00
2013-12-22,63.1,45.2,33.8,30.2,25.9,23.2,66,48,27,30.36,30.11,4,1,6,0.00
2013-12-23,63.7,47.6,34.2,31.8,27.4,23.0,66,47,29,30.47,30.36,5,1,6,0.00
2013-12-24,66.3,49.0,34.7,33.1,28.9,25.5,71,48,28,30.37,30.23,5,1,7,0.00
2013-12-25,64.8,53.0,42.0,28.1,24.1,18.5,52,34,20,30.42,30.29,9,3,13,0.00
2013-12-27,67.8,49.6,34.4,17.8,12.6,8.5,35,23,13,30.33,30.12,7,2,10,0.00
2013-12-28,67.4,50.3,34.7,18.6,13.1,9.1,39,23,13,30.12,29.98,5,1,7,0.00
2013-12-29,63.2,49.5,38.2,16.8,12.0,6.5,35,23,14,30.27,30.11,7,3,13,0.00
2013-12-30,62.8,46.2,32.0,16.1,10.9,6.9,35,24,14,30.36,30.24,6,1,7,0.00
2013-12-31,61.2,46.5,32.0,16.1,12.0,8.3,37,25,16,30.29,30.15,4,1,7,0.00
2014-1-1,68.0,49.3,35.0,22.1,15.5,8.9,36,26,17,30.29,30.18,4,1,5,0.00
2014-1-2,68.1,50.5,36.5,26.6,21.4,15.8,44,32,21,30.26,30.10,5,2,7,0.00